Weather in Shunery

Russia / Krasnoyarsk Krai     53°07′36″N   91°35′25″E
temp.,
°C
wind,
m/s
gust,
m/s
humid.,
%
clouds,
%
prec.,
mm/h
press.,
hPa
HPBL,
m
26 january, tue
tue2601:00−27n119894 0.0 104119
04:00−24nne1199100 0.4 103950
07:00−24n1199100 1.0 103923
10:00−24n1298100 0.4 1038119
13:00−23nnw1195100 0.9 1037233
16:00−23nne1293100 0.1 1037159
19:00−28nne119599 0.1 104019
22:00−29nnw119598 0.0 104119
27 january, wed
wed2701:00−30nne119998 0.1 104219
04:00−30ene129999 0.0 104219
07:00−28ne2298100 0.0 104124
10:00−24ne1298100 0.2 103890
13:00−20ne1198100 1.9 1033121
16:00−16e2296100 1.1 103094
19:00−4sw51482100 1.2 10301111
22:00−3wsw91775100 0.0 10291164
28 january, thu
thu2801:00−3wsw91775100 0.1 10281090
04:00−3wsw91776100 0.1 10281180
07:00−4wsw91677100 0.1 10291069
10:00−4wsw91677100 0.1 10291146
13:00−3wsw101775100 0.2 10291203
16:00−3wsw91676100 0.1 10281112
19:00−3wsw81676100 0.1 10281117
22:00−3wsw81779100 0.0 10271159
29 january, fri
fri2901:00−3wsw91877100 0.0 10251143
04:00−3sw61780100 0.0 10231229
07:00−2wsw102275100 0.0 10211370
10:00−2wsw122173100 0.0 10201089
13:00−1wsw132274100 0.0 10171309
16:000wsw101978100 0.0 10171530
19:00−2w61480100 0.1 10201113
22:00−4wsw71577100 0.0 1022962
30 january, sat
sat3001:00−5wsw8167899 0.0 1023761
04:00−5wsw71777100 0.0 1022791
07:00−6wsw71778100 0.0 1022825
10:00−5wsw91677100 0.0 10221022
13:00−4wsw91675100 0.0 10221394
16:00−4wsw9157395 0.0 1024981
19:00−16ne479695 0.1 1030175
22:00−19ene4699100 0.4 1035211